Tracking 34706 objects as of 10-Jul-2026
HD Live streaming from Space Station
objects crossing your sky now

YZ-1 R/B

Track YZ-1 R/B now!


NORAD ID: 44866
Int'l Code: 2019-090C
Perigee: 22,144.3 km
Apogee: 22,555.3 km
Inclination: 56.4 °
Period: 807.3 minutes
Semi major axis: 28720 km
RCS: Unknown
Launch date: December 16, 2019
Source: People's Republic of China (PRC)
Launch site: Xichang Space Center, China (XSC)

Note: This is a ROCKET BODY
Your satellite tracking list
Your tracking list is empty




NASA's NSSDC Master Catalog

Two Line Element Set (TLE):
1 44866U 19090C   26190.17879886 -.00000038  00000-0  00000-0 0  9991
2 44866  56.4027  68.8671 0071550  40.9943 319.5994  1.78364050 42760
Source of the keplerian elements: AFSPC